You are not logged in, Click here to log in
機場資訊:RJSN Welcome to Taiwan Airways 台灣虛擬航空
ICAO: RJSN Country: 日本新潟
Latitude: 37.9523 Longitude: 139.113
Total Arrivals: 6 Total Departures: 8
Latest Arrival: GEJ613 (RJCH-RJSN)Robert. Chou Latest Departure: AE1810 (RJSN-RJGG)Robert. Chou
Scenery:
METAR : RJSN 180400Z 03011KT 9999 FEW040 BKN/// 21/14 Q1024

新潟空港KIJ